Time,TemperatureF,DewpointF,PressureIn,WindDirection,WindDirectionDegrees,WindSpeedMPH,WindSpeedGustMPH,Humidity,HourlyPrecipIn,Conditions,Clouds,dailyrainin,SoftwareType,DateUTC
2013-03-20 00:14:00,61.2,46.0,26.89,North,5,0.0,-999.0,57,-99.99,,,0.00,weatherlink.com 1.10,2013-03-20 05:14:00,
2013-03-20 00:29:00,60.9,45.0,26.89,NNE,17,1.0,-999.0,56,-99.99,,,0.00,weatherlink.com 1.10,2013-03-20 05:29:00,
2013-03-20 00:44:00,60.8,45.0,26.89,North,9,3.0,-999.0,57,-99.99,,,0.00,weatherlink.com 1.10,2013-03-20 05:44:00,
2013-03-20 00:59:00,60.8,44.0,26.89,NNE,28,5.0,-999.0,55,-99.99,,,0.00,weatherlink.com 1.10,2013-03-20 05:59:00,
2013-03-20 01:14:00,60.7,44.0,26.89,NE,36,1.0,-999.0,55,-99.99,,,0.00,weatherlink.com 1.10,2013-03-20 06:14:00,
2013-03-20 01:30:00,60.2,43.0,26.89,ESE,108,2.0,-999.0,54,-99.99,,,0.00,weatherlink.com 1.10,2013-03-20 06:30:00,
2013-03-20 01:45:00,60.1,42.0,26.89,NNE,26,5.0,-999.0,52,-99.99,,,0.00,weatherlink.com 1.10,2013-03-20 06:45:00,
2013-03-20 01:59:00,60.2,42.0,26.89,NE,35,0.0,-999.0,51,-99.99,,,0.00,weatherlink.com 1.10,2013-03-20 06:59:00,
2013-03-20 02:15:00,60.0,42.0,26.89,NE,51,0.0,-999.0,51,-99.99,,,0.00,weatherlink.com 1.10,2013-03-20 07:15:00,
2013-03-20 02:30:00,59.8,41.0,21.52,North,5,0.0,-999.0,50,-99.99,,,0.00,weatherlink.com 1.10,2013-03-20 07:30:00,
2013-03-20 02:45:00,59.6,41.0,21.52,NNE,32,0.0,-999.0,50,-99.99,,,0.00,weatherlink.com 1.10,2013-03-20 07:45:00,
2013-03-20 03:15:00,59.1,40.0,21.52,NNE,29,3.0,-999.0,50,-99.99,,,0.00,weatherlink.com 1.10,2013-03-20 08:15:00,
2013-03-20 03:30:00,59.0,40.0,21.52,NE,48,0.0,-999.0,50,-99.99,,,0.00,weatherlink.com 1.10,2013-03-20 08:30:00,
2013-03-20 03:45:00,59.0,39.0,21.52,NNE,29,0.0,-999.0,48,-99.99,,,0.00,weatherlink.com 1.10,2013-03-20 08:45:00,
2013-03-20 04:00:00,58.9,39.0,22.07,NNE,32,0.0,-999.0,48,-99.99,,,0.00,weatherlink.com 1.10,2013-03-20 09:00:00,
2013-03-20 04:15:00,58.5,40.0,22.07,NNE,30,3.0,-999.0,50,-99.99,,,0.00,weatherlink.com 1.10,2013-03-20 09:15:00,
2013-03-20 04:30:00,58.3,40.0,22.07,North,350,2.0,-999.0,50,-99.99,,,0.00,weatherlink.com 1.10,2013-03-20 09:30:00,
2013-03-20 04:45:00,58.1,40.0,22.07,North,360,5.0,-999.0,51,-99.99,,,0.00,weatherlink.com 1.10,2013-03-20 09:45:00,
2013-03-20 05:00:00,58.0,39.0,22.07,NNE,33,2.0,-999.0,50,-99.99,,,0.00,weatherlink.com 1.10,2013-03-20 10:00:00,
2013-03-20 05:15:00,57.8,39.0,22.07,North,360,8.0,-999.0,50,-99.99,,,0.00,weatherlink.com 1.10,2013-03-20 10:15:00,
2013-03-20 05:30:00,57.9,40.0,22.07,NNE,30,4.0,-999.0,51,-99.99,,,0.00,weatherlink.com 1.10,2013-03-20 10:30:00,
2013-03-20 05:45:00,58.0,39.0,24.80,NNW,339,5.0,-999.0,49,-99.99,,,0.00,weatherlink.com 1.10,2013-03-20 10:45:00,
2013-03-20 06:00:00,58.0,39.0,24.91,NNE,20,5.0,-999.0,49,-99.99,,,0.00,weatherlink.com 1.10,2013-03-20 11:00:00,
2013-03-20 06:15:00,57.7,38.0,24.91,North,10,9.0,-999.0,48,-99.99,,,0.00,weatherlink.com 1.10,2013-03-20 11:15:00,
2013-03-20 06:30:00,57.3,38.0,24.49,NNW,340,5.0,-999.0,48,-99.99,,,0.00,weatherlink.com 1.10,2013-03-20 11:30:00,
2013-03-20 06:45:00,57.1,38.0,24.49,North,5,7.0,-999.0,50,-99.99,,,0.00,weatherlink.com 1.10,2013-03-20 11:45:00,
2013-03-20 07:00:00,56.8,39.0,24.49,North,5,2.0,-999.0,51,-99.99,,,0.00,weatherlink.com 1.10,2013-03-20 12:00:00,
2013-03-20 07:15:00,56.6,37.0,24.49,North,360,4.0,-999.0,49,-99.99,,,0.00,weatherlink.com 1.10,2013-03-20 12:15:00,
2013-03-20 07:30:00,56.4,37.0,24.49,NE,42,2.0,-999.0,49,-99.99,,,0.00,weatherlink.com 1.10,2013-03-20 12:30:00,
2013-03-20 08:00:00,56.3,38.0,24.49,NE,41,4.0,-999.0,51,-99.99,,,0.00,weatherlink.com 1.10,2013-03-20 13:00:00,
2013-03-20 08:15:00,56.4,38.0,24.49,NNE,24,4.0,-999.0,51,-99.99,,,0.00,weatherlink.com 1.10,2013-03-20 13:15:00,
2013-03-20 08:30:00,56.6,38.0,25.76,NNE,17,10.0,-999.0,51,-99.99,,,0.00,weatherlink.com 1.10,2013-03-20 13:30:00,
2013-03-20 08:45:00,57.1,36.0,25.51,NE,44,7.0,-999.0,46,-99.99,,,0.00,weatherlink.com 1.10,2013-03-20 13:45:00,
2013-03-20 09:00:00,57.7,37.0,25.51,NNE,23,6.0,-999.0,46,-99.99,,,0.00,weatherlink.com 1.10,2013-03-20 14:00:00,
2013-03-20 09:15:00,57.9,37.0,23.51,NNE,32,3.0,-999.0,46,-99.99,,,0.00,weatherlink.com 1.10,2013-03-20 14:15:00,
2013-03-20 09:30:00,58.2,37.0,23.51,NE,36,4.0,-999.0,45,-99.99,,,0.00,weatherlink.com 1.10,2013-03-20 14:30:00,
2013-03-20 09:45:00,58.4,37.0,23.51,NE,43,3.0,-999.0,46,-99.99,,,0.00,weatherlink.com 1.10,2013-03-20 14:45:00,
2013-03-20 10:00:00,58.7,37.0,23.51,NNE,20,1.0,-999.0,45,-99.99,,,0.00,weatherlink.com 1.10,2013-03-20 15:00:00,
2013-03-20 10:15:00,58.7,38.0,23.51,ENE,74,0.0,-999.0,46,-99.99,,,0.00,weatherlink.com 1.10,2013-03-20 15:15:00,
2013-03-20 10:30:00,59.4,38.0,23.51,NE,51,1.0,-999.0,46,-99.99,,,0.00,weatherlink.com 1.10,2013-03-20 15:30:00,
2013-03-20 10:45:00,60.4,39.0,23.51,North,355,5.0,-999.0,45,-99.99,,,0.00,weatherlink.com 1.10,2013-03-20 15:45:00,
2013-03-20 11:00:00,60.4,39.0,23.51,North,351,6.0,-999.0,46,-99.99,,,0.00,weatherlink.com 1.10,2013-03-20 16:00:00,
2013-03-20 11:15:00,60.2,41.0,23.51,NNE,24,4.0,-999.0,49,-99.99,,,0.00,weatherlink.com 1.10,2013-03-20 16:15:00,
2013-03-20 11:30:00,59.9,39.0,23.51,North,5,2.0,-999.0,47,-99.99,,,0.00,weatherlink.com 1.10,2013-03-20 16:30:00,
2013-03-20 11:45:00,59.3,39.0,23.51,NNE,32,1.0,-999.0,48,-99.99,,,0.00,weatherlink.com 1.10,2013-03-20 16:45:00,
2013-03-20 12:00:00,59.2,40.0,23.51,ENE,60,1.0,-999.0,49,-99.99,,,0.00,weatherlink.com 1.10,2013-03-20 17:00:00,
2013-03-20 12:15:00,59.2,41.0,21.45,ESE,117,0.0,-999.0,51,-99.99,,,0.00,weatherlink.com 1.10,2013-03-20 17:15:00,
2013-03-20 12:30:00,59.2,42.0,21.45,NNW,347,11.0,-999.0,53,-99.99,,,0.00,weatherlink.com 1.10,2013-03-20 17:30:00,
2013-03-20 12:45:00,59.6,43.0,21.45,NNW,340,7.0,-999.0,55,-99.99,,,0.00,weatherlink.com 1.10,2013-03-20 17:45:00,
2013-03-20 13:00:00,59.1,45.0,21.45,NNW,339,10.0,-999.0,59,-99.99,,,0.00,weatherlink.com 1.10,2013-03-20 18:00:00,
2013-03-20 13:15:00,59.3,45.0,21.45,NNW,341,14.0,-999.0,59,-99.99,,,0.00,weatherlink.com 1.10,2013-03-20 18:15:00,
2013-03-20 13:30:00,59.8,46.0,21.45,North,349,20.0,-999.0,61,-99.99,,,0.00,weatherlink.com 1.10,2013-03-20 18:30:00,
2013-03-20 13:45:00,59.4,44.0,21.45,NNW,338,14.0,-999.0,58,-99.99,,,0.00,weatherlink.com 1.10,2013-03-20 18:45:00,
2013-03-20 14:00:00,59.4,45.0,21.45,NNW,335,18.0,-999.0,60,-99.99,,,0.00,weatherlink.com 1.10,2013-03-20 19:00:00,
2013-03-20 14:15:00,59.5,44.0,0.00,NNW,337,17.0,-999.0,58,-99.99,,,0.00,weatherlink.com 1.10,2013-03-20 19:15:00,
2013-03-20 14:30:00,60.1,43.0,0.00,North,355,11.0,-999.0,54,-99.99,,,0.00,weatherlink.com 1.10,2013-03-20 19:30:00,
2013-03-20 14:45:00,60.6,41.0,0.00,North,349,8.0,-999.0,49,-99.99,,,0.00,weatherlink.com 1.10,2013-03-20 19:45:00,
2013-03-20 15:00:00,61.0,45.0,0.00,North,350,14.0,-999.0,57,-99.99,,,0.00,weatherlink.com 1.10,2013-03-20 20:00:00,
2013-03-20 15:15:00,61.8,44.0,0.00,NNW,329,15.0,-999.0,53,-99.99,,,0.00,weatherlink.com 1.10,2013-03-20 20:15:00,
2013-03-20 15:30:00,61.6,44.0,0.00,NNW,338,18.0,-999.0,53,-99.99,,,0.00,weatherlink.com 1.10,2013-03-20 20:30:00,
2013-03-20 15:46:00,62.7,44.0,0.00,NNW,340,13.0,-999.0,51,-99.99,,,0.00,weatherlink.com 1.10,2013-03-20 20:46:00,
2013-03-20 16:04:00,63.0,46.0,0.00,NNW,330,15.0,-999.0,54,-99.99,,,0.00,weatherlink.com 1.10,2013-03-20 21:04:00,
2013-03-20 16:16:00,63.2,46.0,0.00,NNW,334,13.0,-999.0,54,-99.99,,,0.00,weatherlink.com 1.10,2013-03-20 21:16:00,
2013-03-20 16:31:00,63.5,43.0,0.00,NNW,332,15.0,-999.0,47,-99.99,,,0.00,weatherlink.com 1.10,2013-03-20 21:31:00,
2013-03-20 16:46:00,64.0,44.0,0.00,NNW,342,16.0,-999.0,48,-99.99,,,0.00,weatherlink.com 1.10,2013-03-20 21:46:00,
2013-03-20 17:01:00,64.5,44.0,0.00,NNW,344,16.0,-999.0,48,-99.99,,,0.00,weatherlink.com 1.10,2013-03-20 22:01:00,
2013-03-20 17:16:00,64.7,43.0,0.00,NNW,340,19.0,-999.0,46,-99.99,,,0.00,weatherlink.com 1.10,2013-03-20 22:16:00,
2013-03-20 17:31:00,64.9,40.0,0.00,NNW,340,17.0,-999.0,41,-99.99,,,0.00,weatherlink.com 1.10,2013-03-20 22:31:00,
2013-03-20 17:46:00,64.5,38.0,0.00,North,11,18.0,-999.0,38,-99.99,,,0.00,weatherlink.com 1.10,2013-03-20 22:46:00,
2013-03-20 18:01:00,64.8,38.0,0.00,North,360,16.0,-999.0,38,-99.99,,,0.00,weatherlink.com 1.10,2013-03-20 23:01:00,
2013-03-20 18:31:00,64.2,37.0,0.00,North,360,12.0,-999.0,37,-99.99,,,0.00,weatherlink.com 1.10,2013-03-20 23:31:00,
2013-03-20 18:46:00,63.6,36.0,0.00,NNE,19,7.0,-999.0,36,-99.99,,,0.00,weatherlink.com 1.10,2013-03-20 23:46:00,
2013-03-20 19:01:00,62.6,37.0,0.00,NNE,22,0.0,-999.0,39,-99.99,,,0.00,weatherlink.com 1.10,2013-03-21 00:01:00,
2013-03-20 19:16:00,61.3,37.0,0.00,NNE,23,3.0,-999.0,41,-99.99,,,0.00,weatherlink.com 1.10,2013-03-21 00:16:00,
2013-03-20 19:46:00,60.4,38.0,0.00,NNE,24,1.0,-999.0,44,-99.99,,,0.00,weatherlink.com 1.10,2013-03-21 00:46:00,
2013-03-20 20:16:00,59.7,36.0,0.00,NNE,24,0.0,-999.0,42,-99.99,,,0.00,weatherlink.com 1.10,2013-03-21 01:16:00,
2013-03-20 20:31:00,59.0,36.0,0.00,NNE,21,0.0,-999.0,43,-99.99,,,0.00,weatherlink.com 1.10,2013-03-21 01:31:00,
2013-03-20 21:01:00,58.1,38.0,0.00,NNE,21,0.0,-999.0,48,-99.99,,,0.00,weatherlink.com 1.10,2013-03-21 02:01:00,
2013-03-20 21:16:00,56.1,38.0,0.00,NNE,21,0.0,-999.0,51,-99.99,,,0.00,weatherlink.com 1.10,2013-03-21 02:16:00,
2013-03-20 21:31:00,54.4,38.0,0.00,NNE,21,0.0,-999.0,54,-99.99,,,0.00,weatherlink.com 1.10,2013-03-21 02:31:00,
2013-03-20 21:46:00,53.2,38.0,0.00,NNE,21,0.0,-999.0,57,-99.99,,,0.00,weatherlink.com 1.10,2013-03-21 02:46:00,
2013-03-20 22:04:00,52.4,39.0,0.00,NNE,21,0.0,-999.0,60,-99.99,,,0.00,weatherlink.com 1.10,2013-03-21 03:04:00,
2013-03-20 22:16:00,51.6,39.0,0.00,NNE,21,0.0,-999.0,62,-99.99,,,0.00,weatherlink.com 1.10,2013-03-21 03:16:00,
2013-03-20 22:31:00,50.8,39.0,0.00,NNE,21,0.0,-999.0,65,-99.99,,,0.00,weatherlink.com 1.10,2013-03-21 03:31:00,
2013-03-20 22:46:00,50.1,39.0,0.00,NNE,21,0.0,-999.0,67,-99.99,,,0.00,weatherlink.com 1.10,2013-03-21 03:46:00,
2013-03-20 23:01:00,49.8,40.0,23.79,NNE,21,0.0,-999.0,68,-99.99,,,0.00,weatherlink.com 1.10,2013-03-21 04:01:00,
2013-03-20 23:16:00,50.4,41.0,23.79,NNE,21,0.0,-999.0,70,-99.99,,,0.00,weatherlink.com 1.10,2013-03-21 04:16:00,
2013-03-20 23:32:00,53.0,43.0,23.79,North,355,5.0,-999.0,69,-99.99,,,0.00,weatherlink.com 1.10,2013-03-21 04:32:00,
2013-03-20 23:46:00,55.3,43.0,23.79,North,355,8.0,-999.0,63,-99.99,,,0.00,weatherlink.com 1.10,2013-03-21 04:46:00,